[[{"header":{"parameterUnit":"m.s-1","parameterCategory":2,"la1":30.2991,"la2":30.254,"lo1":-89.0895,"lo2":-89.0444,"dy":0.0017,"dx":0.0017,"nx":28,"ny":28,"refTime":"2025-08-19T21:00:00:Z","depth":"0","parameterNumber":2,"parameterNumberName":"U-component_of_CURRENTS"},"data":[0,0,0,0,0,0,0,0,0,0,0,0,0,0,0,0,0,0,0,0,0,0,0,0,0,0,0,0,0,0,0,0,0,0,0,0,0,0,0,0,0,0,0,0,0,0,0,0,0,0,0,0,0,0,0,0,0,0,0.3234,0.3234,0,0.3296,0.3297,0.3297,0.3307,0.3307,0.3307,0.3306,0.3392,0.3394,0.3397,0,0,0,0,0,0,0,0,0,0,0,0,0,0.3107,0.3109,0.3234,0.3234,0.3235,0.3296,0.3297,0.3297,0.3308,0.3307,0.3306,0.3306,0.3391,0.3394,0.3397,0,0,0,0,0,0,0,0,0,0,0,0,0,0.3164,0.311,0.3233,0.3248,0.325,0.3296,0.3297,0.3298,0.3308,0.3307,0.3306,0.3306,0.339,0.3394,0.3398,0.3436,0,0,0.341,0.3412,0,0,0,0,0,0,0,0,0.3161,0.3169,0.3245,0.3247,0.325,0.3294,0.3284,0.3346,0.3308,0.3285,0.3306,0.3305,0.3362,0.3369,0.338,0.344,0.3444,0.341,0.3413,0.3415,0.3416,0,0,0,0,0,0,0,0.3157,0.3166,0.3257,0.3246,0.3249,0.3247,0.3254,0.3295,0.3326,0.3287,0.3288,0.3297,0.3364,0.3376,0.3382,0.3445,0.341,0.3414,0.3416,0.3418,0.3585,0.3587,0,0,0,0,0,0,0.3153,0.3163,0.3255,0.3259,0.3204,0.3249,0.3258,0.328,0.3326,0.3332,0.3297,0.3297,0.337,0.3378,0.3385,0.3481,0.3415,0.3418,0.3421,0.3583,0.3585,0.3587,0,0,0,0,0,0,0.3151,0.3162,0.3253,0.3212,0.3223,0.3253,0.3277,0.3281,0.3295,0.3333,0.334,0.3307,0.3369,0.338,0.3421,0.3482,0.342,0.3424,0.358,0.3583,0.3586,0.3642,0,0,0,0,0,0,0.3147,0.3161,0.3173,0.3212,0.3226,0.3296,0.3278,0.3283,0.3302,0.3302,0.3344,0.3351,0.337,0.3415,0.3425,0.3487,0.3427,0.3578,0.3582,0.3585,0.3637,0.3646,0.3654,0,0,0,0,0,0.3142,0.3171,0.3174,0.3185,0.3244,0.3297,0.3305,0.3321,0.3303,0.3326,0.3338,0.335,0.3447,0.3419,0.3431,0.3495,0.3576,0.3581,0.3585,0.3634,0.3645,0.3654,0,0,0,0,0,0,0.3115,0.3176,0.318,0.3222,0.3261,0.33,0.332,0.3323,0.335,0.3346,0.3364,0.3374,0.3442,0.3453,0.3422,0.3554,0.3519,0.3526,0.3552,0.3563,0.3571,0.3558,0.3431,0,0,0,0,0,0.3117,0.3159,0.3206,0.3239,0.326,0.3286,0.3306,0.332,0.3348,0.3359,0.3392,0.3426,0.3472,0.3499,0.3544,0.3605,0.3642,0.3658,0.3666,0.3673,0.3671,0.3708,0.3719,0.3602,0.3602,0.3602,0,0,0.3109,0.3153,0.3171,0.3237,0.3264,0.3318,0.3297,0.3338,0.3381,0.3366,0.3434,0.3458,0.3494,0.3569,0.3602,0.3584,0.3751,0.3679,0.3684,0.3678,0.3714,0.3725,0.3735,0.3605,0.3605,0.3604,0,0,0.3139,0.3161,0.3213,0.3255,0.3311,0.3336,0.3348,0.3399,0.3419,0.348,0.3485,0.3524,0.3606,0.3639,0.3663,0.374,0.3791,0.3776,0.3811,0.3848,0.3858,0.3866,0.4031,0.4053,0.378,0.378,0.378,0,0.3127,0.3204,0.3233,0.3299,0.3329,0.3347,0.3399,0.3437,0.3495,0.3505,0.3512,0.3603,0.3639,0.3704,0.3746,0.376,0.3827,0.3769,0.3858,0.3866,0.3873,0.4039,0.4063,0.3784,0.3783,0.3783,0.3783,0,0.3201,0.3262,0.3296,0.3387,0.3419,0.3471,0.3518,0.3554,0.3572,0.3598,0.366,0.37,0.374,0.3784,0.3796,0.3878,0.3934,0.3862,0.3827,0.3888,0.4062,0.4085,0.3788,0.3787,0.3786,0.3785,0,0,0.3183,0.3322,0.3334,0.3381,0.3466,0.3498,0.3564,0.3616,0.3656,0.3702,0.3758,0.3824,0.3815,0.3842,0.3866,0.3916,0.4075,0.3925,0.3926,0.4085,0.4269,0.4256,0.4282,0.4012,0.4014,0.4015,0.4407,0,0.3233,0.3363,0.3412,0.3508,0.3571,0.3595,0.3657,0.3695,0.3741,0.3811,0.3818,0.3899,0.3848,0.39,0.3922,0.4042,0.4124,0.3983,0.4189,0.4198,0.417,0.43,0.4108,0.4431,0.443,0.4434,0.4437,0,0.3298,0.3375,0.348,0.3575,0.3597,0.3644,0.3708,0.3771,0.3846,0.3885,0.391,0.3947,0.4043,0.3988,0.4164,0.4081,0.4178,0.4259,0.4273,0.4242,0.4224,0.435,0.4475,0.4308,0.4473,0.447,0.4468,0,0.3291,0.3418,0.3495,0.3532,0.3642,0.366,0.3703,0.3775,0.3841,0.3945,0.4022,0.4074,0.4177,0.4232,0.438,0.4294,0.4614,0.4501,0.4592,0.4599,0.4463,0.4451,0.4427,0.4616,0.4615,0.4614,0.4613,0,0.3355,0.3414,0.3492,0.3543,0.3613,0.366,0.3745,0.3801,0.3903,0.4,0.4049,0.4167,0.4237,0.4407,0.4471,0.4648,0.4677,0.4649,0.4681,0.4491,0.4477,0.4342,0.4265,0.4629,0.4626,0.4623,0.4621,0,0.3382,0.3443,0.3528,0.3608,0.3631,0.3676,0.3784,0.3841,0.3946,0.4089,0.4139,0.431,0.4518,0.4632,0.4839,0.4814,0.4831,0.501,0.4856,0.4857,0.4678,0.4613,0.4555,0.443,0.5158,0.516,0.5161,0,0.3428,0.3472,0.3559,0.3595,0.3637,0.3708,0.3756,0.3857,0.3928,0.4173,0.4242,0.4505,0.4636,0.4967,0.5013,0.5173,0.4959,0.5091,0.4819,0.4685,0.4638,0.4445,0.4328,0.4745,0.4743,0.4741,0.4739,0,0.3491,0.3502,0.3566,0.363,0.3676,0.3738,0.381,0.3873,0.4004,0.4138,0.433,0.4469,0.4772,0.4839,0.5062,0.5098,0.4803,0.5057,0.4911,0.4316,0.4111,0.3999,0.4577,0.4724,0.4726,0.4727,0.4728,0.4728,0.3511,0.3547,0.3599,0.3647,0.3699,0.3719,0.3726,0.3815,0.3925,0.4062,0.4289,0.4422,0.4609,0.485,0.4891,0.4776,0.4736,0.4589,0.4554,0.4398,0.4122,0.4733,0.4877,0.4879,0.4881,0.4883,0.4884,0,0.3521,0.3546,0.3601,0.3636,0.3634,0.3671,0.3717,0.3685,0.3745,0.3949,0.4089,0.4217,0.4314,0.4415,0.4421,0.4279,0.4067,0.4153,0.3787,0.3716,0.4269,0.4084,0.4064,0.4064,0.4064,0.4065,0.4065,0.4065,0.353,0.3556,0.356,0.3541,0.3538,0.3475,0.3454,0.3442,0.3526,0.3586,0.3641,0.3762,0.395,0.4067,0.3931,0.3839,0.3512,0.3398,0.3395,0.3719,0.3753,0.3785,0.3587,0.3463,0.3463,0.2652,0.2646,0.2641]},{"header":{"parameterUnit":"m.s-1","parameterCategory":2,"la1":30.2991,"la2":30.254,"lo1":-89.0895,"lo2":-89.0444,"dy":0.0017,"dx":0.0017,"nx":28,"ny":28,"refTime":"2025-08-19T21:00:00:Z","depth":"0","parameterNumber":3,"parameterNumberName":"V-component_of_CURRENTS"},"data":[0,0,0,0,0,0,0,0,0,0,0,0,0,0,0,0,0,0,0,0,0,0,0,0,0,0,0,0,0,0,0,0,0,0,0,0,0,0,0,0,0,0,0,0,0,0,0,0,0,0,0,0,0,0,0,0,0,0,0.0173,0.0172,0,0.0091,0.0089,0.0088,0.0031,0.0031,0.0031,0.0031,-0.0106,-0.0109,-0.0112,0,0,0,0,0,0,0,0,0,0,0,0,0,0.0218,0.0218,0.0173,0.0172,0.0171,0.0091,0.0089,0.0088,0.0031,0.0031,0.0031,0.0031,-0.0105,-0.0109,-0.0113,0,0,0,0,0,0,0,0,0,0,0,0,0,0.0171,0.0218,0.0173,0.0135,0.0131,0.0091,0.0089,0.0088,0.0032,0.0031,0.0031,0.0031,-0.0103,-0.0108,-0.0113,-0.014,0,0,-0.0129,-0.0131,0,0,0,0,0,0,0,0,0.0174,0.0169,0.0142,0.0138,0.0133,0.0073,0.0055,0.001,0.0032,0.0067,0.0031,0.0031,-0.0049,-0.0059,-0.0076,-0.0146,-0.0152,-0.013,-0.0133,-0.0135,-0.0137,0,0,0,0,0,0,0,0.0177,0.0172,0.0138,0.0141,0.0136,0.0101,0.0094,0.0046,0.0009,0.0064,0.006,0.0055,-0.0052,-0.0071,-0.008,-0.0154,-0.013,-0.0134,-0.0137,-0.0139,-0.0261,-0.0261,0,0,0,0,0,0,0.0196,0.0176,0.014,0.0136,0.0156,0.0101,0.0093,0.0091,0.001,-0.0001,0.0055,0.0053,-0.0062,-0.0074,-0.0085,-0.0136,-0.0135,-0.014,-0.0143,-0.0261,-0.0261,-0.0262,0,0,0,0,0,0,0.0198,0.0194,0.0144,0.0155,0.0147,0.0101,0.0098,0.0089,0.0071,0.0005,-0.0008,0.0047,-0.0063,-0.0078,-0.0123,-0.0141,-0.0142,-0.0147,-0.0261,-0.0261,-0.0261,-0.0227,0,0,0,0,0,0,0.0199,0.0195,0.0197,0.0157,0.0147,0.0122,0.0099,0.0088,0.0069,0.0065,-0.0007,-0.002,-0.0064,-0.0115,-0.0128,-0.0148,-0.0151,-0.0261,-0.0261,-0.0261,-0.0228,-0.0226,-0.0225,0,0,0,0,0,0.0201,0.0208,0.0198,0.0194,0.0153,0.0123,0.0114,0.0078,0.007,0.0061,0.0018,-0.0018,-0.0126,-0.0119,-0.0134,-0.0156,-0.0261,-0.0261,-0.0261,-0.0229,-0.0227,-0.0225,0,0,0,0,0,0,0.0229,0.0202,0.019,0.0189,0.016,0.0114,0.0106,0.0084,0.0043,0.004,-0.002,-0.0036,-0.0083,-0.0118,-0.0109,-0.019,-0.02,-0.0203,-0.017,-0.0168,-0.0166,-0.0129,-0.0155,0,0,0,0,0,0.0239,0.0236,0.0202,0.0201,0.019,0.015,0.0134,0.011,0.0072,0.0054,0.0005,-0.0046,-0.0097,-0.0128,-0.0176,-0.022,-0.0204,-0.0243,-0.0241,-0.024,-0.0219,-0.0209,-0.0203,-0.0262,-0.0262,-0.0262,0,0,0.0251,0.0235,0.0234,0.0207,0.0182,0.0162,0.0139,0.0119,0.0098,0.0045,0.0004,-0.0041,-0.0105,-0.0155,-0.018,-0.0188,-0.0211,-0.024,-0.0238,-0.0218,-0.0208,-0.0202,-0.0197,-0.0263,-0.0263,-0.0263,0,0,0.0269,0.0259,0.0259,0.0237,0.0207,0.0178,0.0177,0.0133,0.011,0.007,0.0025,-0.0018,-0.0098,-0.0145,-0.0181,-0.0194,-0.0198,-0.0218,-0.0187,-0.0179,-0.0173,-0.0168,-0.0118,-0.0109,-0.0222,-0.0222,-0.0222,0,0.0283,0.0281,0.0254,0.0243,0.0235,0.0189,0.0186,0.0147,0.0094,0.0094,0.0064,-0.002,-0.0092,-0.0136,-0.0157,-0.0191,-0.0165,-0.0193,-0.0174,-0.0169,-0.0164,-0.0115,-0.0105,-0.022,-0.022,-0.0221,-0.0221,0,0.0295,0.0292,0.0292,0.0264,0.0247,0.024,0.0192,0.0175,0.0147,0.012,0.0087,0.0005,-0.0036,-0.0083,-0.0137,-0.0148,-0.0131,-0.0167,-0.0173,-0.0155,-0.0105,-0.0095,-0.0218,-0.0219,-0.0219,-0.0219,0,0,0.0337,0.0309,0.0309,0.0316,0.0266,0.0264,0.0231,0.0213,0.0235,0.0159,0.0192,0.0059,0.0041,0.0001,-0.0066,-0.0083,-0.0054,-0.0114,-0.0114,-0.0052,0.001,-0.0002,0.0007,-0.0083,-0.0082,-0.0081,0.0041,0,0.036,0.0369,0.0336,0.0345,0.0353,0.0311,0.0302,0.0279,0.0258,0.0276,0.0198,0.0194,0.0063,0.0066,0.0014,-0.0026,-0.003,-0.0081,-0.0027,-0.0024,-0.0028,0.0017,-0.0027,0.0074,0.005,0.0052,0.0053,0,0.0386,0.0395,0.0416,0.0428,0.043,0.0425,0.0452,0.0437,0.043,0.0427,0.0396,0.0353,0.03,0.0207,0.0138,0.0118,0.0068,0.0032,0.0035,0.0022,-0.0019,0.0046,0.0092,-0.0134,0.0067,0.0066,0.0065,0,0.0466,0.0456,0.0489,0.0486,0.0479,0.05,0.0504,0.0501,0.0546,0.0552,0.0622,0.0517,0.055,0.0424,0.0305,0.0237,0.0281,0.0179,0.0133,0.0133,0.0106,0.0101,-0.0051,0.0164,0.0163,0.0163,0.0163,0,0.0524,0.0555,0.0538,0.0565,0.0642,0.0596,0.0689,0.0685,0.073,0.0841,0.0723,0.0824,0.0613,0.0594,0.0414,0.0328,0.0365,0.017,0.0164,0.0117,0.0112,-0.008,-0.0202,0.0167,0.0166,0.0166,0.0165,0,0.0632,0.0602,0.0661,0.0673,0.0689,0.0758,0.0838,0.0912,0.0935,0.109,0.1117,0.1109,0.1084,0.0881,0.0753,0.0538,0.0293,0.0377,0.0356,0.0342,0.0011,-0.0106,-0.0194,-0.0281,0.032,0.0321,0.0321,0,0.07,0.073,0.0778,0.083,0.0849,0.0934,0.1007,0.103,0.1126,0.1288,0.1395,0.1434,0.1488,0.1286,0.0922,0.0646,0.041,0.0415,0.0233,0.0013,-0.0122,-0.0206,-0.028,0.0229,0.0228,0.0228,0.0228,0,0.0845,0.085,0.0901,0.0999,0.1079,0.1187,0.1293,0.1402,0.1473,0.1622,0.1834,0.1903,0.1724,0.1442,0.1043,0.0796,0.0225,0.0398,0.0167,-0.0201,-0.0295,-0.0387,0.0156,0.0225,0.0225,0.0225,0.0225,0.0225,0.0964,0.1028,0.1072,0.1169,0.127,0.1414,0.1529,0.1665,0.1861,0.2091,0.2151,0.2289,0.184,0.1288,0.0943,0.0232,0.0253,-0.0032,-0.0142,-0.0196,-0.0341,0.0216,0.0262,0.0263,0.0263,0.0264,0.0264,0,0.1084,0.1129,0.1233,0.1341,0.147,0.1495,0.1694,0.1823,0.2075,0.2308,0.2491,0.2311,0.1755,0.1138,0.021,-0.025,-0.044,-0.0505,-0.0677,-0.0719,-0.0226,-0.0299,-0.0369,-0.0369,-0.0368,-0.0368,-0.0368,-0.0368,0.115,0.1242,0.1271,0.1474,0.1566,0.1747,0.1866,0.2085,0.2268,0.2524,0.2583,0.2595,0.2049,0.0499,-0.0559,-0.0792,-0.1112,-0.1162,-0.1277,-0.102,-0.0987,-0.0955,-0.1056,-0.1283,-0.1284,-0.175,-0.1755,-0.1759]}],[{"header":{"parameterUnit":"m.s-1","parameterCategory":2,"la1":30.2991,"la2":30.254,"lo1":-89.0895,"lo2":-89.0444,"dy":0.0017,"dx":0.0017,"nx":28,"ny":28,"refTime":"2025-08-19T21:00:00:Z","depth":"2","parameterNumber":2,"parameterNumberName":"U-component_of_CURRENTS"},"data":[0,0,0,0,0,0,0,0,0,0,0,0,0,0,0,0,0,0,0,0,0,0,0,0,0,0,0,0,0,0,0,0,0,0,0,0,0,0,0,0,0,0,0,0,0,0,0,0,0,0,0,0,0,0,0,0,0,0,0.2545,0.2546,0,0.261,0.2611,0.2611,0.2649,0.2649,0.265,0.265,0.2716,0.2717,0.2718,0,0,0,0,0,0,0,0,0,0,0,0,0,0.2466,0.2467,0.2545,0.2546,0.2547,0.261,0.2611,0.2611,0.2648,0.2649,0.265,0.2651,0.2716,0.2717,0.2718,0,0,0,0,0,0,0,0,0,0,0,0,0,0.2507,0.2467,0.2544,0.2578,0.2582,0.261,0.2611,0.2611,0.2648,0.2649,0.265,0.2651,0.2715,0.2717,0.2719,0.2709,0,0,0.2724,0.2724,0,0,0,0,0,0,0,0,0.2505,0.2509,0.2572,0.2576,0.258,0.2627,0.2608,0.2646,0.2648,0.2617,0.265,0.2652,0.2689,0.2693,0.2695,0.2712,0.2715,0.2724,0.2725,0.2726,0.2726,0,0,0,0,0,0,0,0.2502,0.2507,0.2565,0.2573,0.2579,0.2595,0.2601,0.2614,0.2642,0.262,0.2624,0.264,0.2691,0.2693,0.2697,0.2716,0.2724,0.2725,0.2726,0.2727,0.2727,0.2726,0,0,0,0,0,0,0.2504,0.2504,0.2563,0.2567,0.2551,0.2596,0.2603,0.2607,0.2642,0.265,0.2639,0.2642,0.269,0.2695,0.27,0.2757,0.2726,0.2727,0.2728,0.2728,0.2727,0.2726,0,0,0,0,0,0,0.2502,0.2508,0.256,0.2543,0.2551,0.2597,0.2601,0.2607,0.2636,0.2658,0.2665,0.2665,0.2691,0.2697,0.2747,0.2758,0.2728,0.2729,0.2729,0.2728,0.2726,0.283,0,0,0,0,0,0,0.2499,0.2506,0.2522,0.2542,0.2553,0.2594,0.2601,0.2608,0.2646,0.2651,0.2682,0.2688,0.2692,0.2745,0.2749,0.2759,0.2731,0.273,0.2728,0.2727,0.2827,0.2832,0.2836,0,0,0,0,0,0.2495,0.2506,0.2522,0.2531,0.2568,0.2595,0.2601,0.2633,0.2647,0.2662,0.2696,0.2688,0.2733,0.2748,0.2752,0.2763,0.2731,0.2729,0.2727,0.2826,0.2831,0.2835,0,0,0,0,0,0,0.2474,0.2513,0.253,0.2551,0.2582,0.2604,0.2621,0.2646,0.2681,0.2694,0.2709,0.2717,0.2756,0.2735,0.275,0.2745,0.2717,0.2715,0.279,0.2795,0.2799,0.2867,0.2732,0,0,0,0,0,0.2479,0.2492,0.2536,0.2547,0.2567,0.2598,0.2619,0.2645,0.2676,0.2693,0.2715,0.2725,0.2741,0.2755,0.276,0.2779,0.2843,0.277,0.2774,0.2779,0.283,0.2936,0.2958,0.2718,0.2718,0.2718,0,0,0.2477,0.2493,0.2506,0.2544,0.2564,0.2595,0.2611,0.2647,0.2683,0.2694,0.2743,0.2754,0.275,0.2775,0.2785,0.2768,0.2878,0.2776,0.278,0.2831,0.2936,0.2961,0.2983,0.2717,0.2717,0.2717,0,0,0.249,0.2489,0.253,0.2542,0.259,0.2602,0.2621,0.2664,0.2698,0.2739,0.276,0.2805,0.2792,0.2828,0.2833,0.2859,0.2902,0.2814,0.29,0.3,0.3024,0.3045,0.3175,0.3207,0.2811,0.2811,0.2811,0,0.2502,0.2526,0.2544,0.2574,0.2586,0.2608,0.265,0.2677,0.2734,0.2793,0.2757,0.2826,0.2825,0.2908,0.2914,0.2879,0.2953,0.2894,0.3017,0.3039,0.3059,0.3187,0.3221,0.2816,0.2815,0.2815,0.2814,0,0.2528,0.2559,0.2566,0.2605,0.2633,0.2644,0.2695,0.275,0.2772,0.2813,0.2901,0.291,0.2967,0.294,0.2943,0.307,0.3084,0.3024,0.3029,0.3092,0.3219,0.3253,0.2822,0.2821,0.2819,0.2818,0,0,0.2524,0.2584,0.2587,0.2638,0.2639,0.2686,0.2741,0.2833,0.2929,0.2941,0.3066,0.3075,0.3111,0.3121,0.3123,0.3203,0.3406,0.3187,0.319,0.3363,0.3679,0.3466,0.3483,0.3379,0.3385,0.3389,0.372,0,0.2542,0.2631,0.2629,0.2702,0.2759,0.2777,0.2837,0.293,0.2986,0.3108,0.3147,0.3241,0.3163,0.3226,0.329,0.3387,0.3498,0.3326,0.3553,0.3562,0.3403,0.3515,0.321,0.3458,0.3753,0.3759,0.3763,0,0.2565,0.263,0.2727,0.2821,0.2845,0.2888,0.3029,0.3092,0.3243,0.33,0.3391,0.3423,0.3569,0.3473,0.3688,0.3587,0.3666,0.3716,0.3728,0.3527,0.341,0.3433,0.3509,0.3821,0.3816,0.3812,0.3808,0,0.2618,0.269,0.2781,0.2791,0.2901,0.2982,0.3044,0.3182,0.3274,0.3469,0.3559,0.3679,0.3787,0.3876,0.3937,0.386,0.4173,0.4065,0.3961,0.3949,0.3733,0.3688,0.4261,0.4261,0.426,0.4259,0.4258,0,0.2619,0.271,0.2829,0.2892,0.3015,0.3075,0.3228,0.3326,0.3473,0.359,0.3683,0.3784,0.3898,0.4037,0.4066,0.4121,0.4279,0.404,0.4028,0.375,0.3706,0.4029,0.3998,0.4271,0.4268,0.4266,0.4264,0,0.2683,0.2738,0.2879,0.302,0.3063,0.3176,0.331,0.3397,0.3567,0.3733,0.3809,0.3963,0.4109,0.4197,0.4386,0.4287,0.4362,0.435,0.4023,0.396,0.4057,0.4026,0.429,0.4286,0.4282,0.4279,0.4276,0,0.276,0.2825,0.299,0.3025,0.3087,0.3232,0.3289,0.3447,0.3513,0.3794,0.3845,0.4077,0.4114,0.4299,0.4234,0.4283,0.4364,0.4015,0.3761,0.4102,0.4066,0.4041,0.4017,0.3562,0.3554,0.3547,0.3542,0,0.2841,0.2878,0.2931,0.3032,0.3097,0.3191,0.3294,0.3357,0.353,0.3667,0.3793,0.3874,0.403,0.3882,0.3945,0.3905,0.3954,0.3866,0.4398,0.3529,0.3421,0.3381,0.3382,0.3481,0.3487,0.3491,0.3495,0.3497,0.2845,0.2852,0.286,0.2933,0.3009,0.3056,0.3079,0.3163,0.3249,0.3329,0.3518,0.3528,0.36,0.3448,0.3392,0.3369,0.3589,0.3434,0.3456,0.3484,0.3268,0.315,0.3125,0.3129,0.3133,0.3136,0.3138,0,0.2714,0.2686,0.2744,0.2765,0.2777,0.2913,0.2971,0.2922,0.2928,0.3033,0.3064,0.2806,0.2763,0.289,0.275,0.2731,0.2711,0.2635,0.2604,0.2666,0.2722,0.2464,0.2111,0.2108,0.2105,0.2102,0,0,0.2606,0.2511,0.2519,0.247,0.2542,0.2506,0.2516,0.2495,0.2523,0.2384,0.237,0.2512,0.2747,0.2349,0.2328,0.2214,0.2411,0.2126,0.2954,0.2978,0.3029,0.3194,0.2868,0,0,0,0,0]},{"header":{"parameterUnit":"m.s-1","parameterCategory":2,"la1":30.2991,"la2":30.254,"lo1":-89.0895,"lo2":-89.0444,"dy":0.0017,"dx":0.0017,"nx":28,"ny":28,"refTime":"2025-08-19T21:00:00:Z","depth":"2","parameterNumber":3,"parameterNumberName":"V-component_of_CURRENTS"},"data":[0,0,0,0,0,0,0,0,0,0,0,0,0,0,0,0,0,0,0,0,0,0,0,0,0,0,0,0,0,0,0,0,0,0,0,0,0,0,0,0,0,0,0,0,0,0,0,0,0,0,0,0,0,0,0,0,0,0,-0.0009,-0.0009,0,-0.0076,-0.0077,-0.0078,-0.0124,-0.0125,-0.0125,-0.0125,-0.0246,-0.0249,-0.0252,0,0,0,0,0,0,0,0,0,0,0,0,0,0.0019,0.0019,-0.0009,-0.0009,-0.001,-0.0076,-0.0077,-0.0078,-0.0124,-0.0125,-0.0125,-0.0125,-0.0245,-0.0249,-0.0252,0,0,0,0,0,0,0,0,0,0,0,0,0,-0.0018,0.0019,-0.0008,-0.0039,-0.0042,-0.0075,-0.0077,-0.0078,-0.0124,-0.0125,-0.0125,-0.0125,-0.0244,-0.0248,-0.0253,-0.0278,0,0,-0.0267,-0.0269,0,0,0,0,0,0,0,0,-0.0015,-0.0019,-0.0034,-0.0037,-0.0041,-0.009,-0.0112,-0.0147,-0.0124,-0.0096,-0.0125,-0.0125,-0.0197,-0.0205,-0.0221,-0.0284,-0.0289,-0.0268,-0.0271,-0.0273,-0.0274,0,0,0,0,0,0,0,-0.0013,-0.0017,-0.0038,-0.0034,-0.0038,-0.007,-0.0075,-0.0119,-0.0148,-0.0098,-0.0101,-0.0105,-0.02,-0.0216,-0.0224,-0.0291,-0.0268,-0.0272,-0.0275,-0.0276,-0.0362,-0.0362,0,0,0,0,0,0,0.0004,-0.0014,-0.0036,-0.004,-0.0025,-0.007,-0.0076,-0.0076,-0.0146,-0.0156,-0.0104,-0.0107,-0.0208,-0.0218,-0.0228,-0.0283,-0.0272,-0.0277,-0.028,-0.0363,-0.0362,-0.0362,0,0,0,0,0,0,0.0005,0.0003,-0.0033,-0.0027,-0.0033,-0.0069,-0.007,-0.0077,-0.009,-0.015,-0.0161,-0.0109,-0.0208,-0.0222,-0.0258,-0.0287,-0.0279,-0.0283,-0.0363,-0.0363,-0.0362,-0.0379,0,0,0,0,0,0,0.0006,0.0004,0.0008,-0.0025,-0.0033,-0.0043,-0.0069,-0.0078,-0.0091,-0.0094,-0.0157,-0.0169,-0.021,-0.025,-0.0262,-0.0293,-0.0287,-0.0364,-0.0363,-0.0362,-0.0379,-0.0379,-0.0379,0,0,0,0,0,0.0007,0.0019,0.0008,0.0005,-0.0025,-0.0043,-0.0049,-0.0079,-0.009,-0.0092,-0.0132,-0.0167,-0.0252,-0.0254,-0.0268,-0.0301,-0.0365,-0.0363,-0.0362,-0.0379,-0.0379,-0.0379,0,0,0,0,0,0,0.0034,0.0014,0.0002,0.0007,-0.0012,-0.0049,-0.0053,-0.0072,-0.0105,-0.011,-0.0165,-0.018,-0.0218,-0.0245,-0.0244,-0.0316,-0.0313,-0.0314,-0.032,-0.0321,-0.032,-0.0331,-0.0291,0,0,0,0,0,0.0043,0.0044,0.0019,0.0022,0.0017,-0.0017,-0.0028,-0.0047,-0.0079,-0.0093,-0.0136,-0.018,-0.0225,-0.0258,-0.0289,-0.0338,-0.0328,-0.0362,-0.0362,-0.0362,-0.0376,-0.0352,-0.0351,-0.0358,-0.0358,-0.0358,0,0,0.0053,0.0043,0.0042,0.0027,0.0009,0.0006,-0.0025,-0.0035,-0.0054,-0.0102,-0.0137,-0.0175,-0.0229,-0.0279,-0.03,-0.0311,-0.0352,-0.0361,-0.0361,-0.0376,-0.0351,-0.035,-0.035,-0.0357,-0.0357,-0.0357,0,0,0.0069,0.0067,0.0068,0.0063,0.0044,0.0026,0.0028,-0.0004,-0.0037,-0.0063,-0.0112,-0.0167,-0.0214,-0.0286,-0.0322,-0.0337,-0.0338,-0.0337,-0.0373,-0.0349,-0.0349,-0.0348,-0.0326,-0.0324,-0.0355,-0.0355,-0.0355,0,0.0081,0.0084,0.0066,0.0072,0.0066,0.0041,0.0041,0.001,-0.0034,-0.0074,-0.0064,-0.0162,-0.0224,-0.0316,-0.034,-0.0345,-0.0316,-0.0378,-0.035,-0.035,-0.0349,-0.0327,-0.0324,-0.0356,-0.0356,-0.0356,-0.0355,0,0.0104,0.0105,0.0111,0.0107,0.0096,0.0101,0.0061,0.0031,0.0004,-0.0033,-0.0102,-0.0171,-0.0232,-0.0271,-0.0327,-0.0378,-0.0352,-0.0339,-0.0355,-0.035,-0.0326,-0.0323,-0.0357,-0.0356,-0.0356,-0.0356,0,0,0.0135,0.0127,0.0129,0.012,0.0118,0.0105,0.007,0.0017,0.0001,-0.0056,-0.0076,-0.0218,-0.0245,-0.0289,-0.0357,-0.0387,-0.0386,-0.0377,-0.0375,-0.0364,-0.0317,-0.0384,-0.0386,-0.0352,-0.0352,-0.0351,-0.0299,0,0.0156,0.016,0.0153,0.0153,0.0148,0.0115,0.0096,0.0041,0.001,-0.0004,-0.0112,-0.0121,-0.025,-0.0251,-0.032,-0.0339,-0.0378,-0.0401,-0.0317,-0.0316,-0.0383,-0.0386,-0.0361,-0.032,-0.0296,-0.0295,-0.0295,0,0.0185,0.0175,0.0178,0.0154,0.0152,0.0161,0.012,0.0107,0.006,0.0048,-0.0013,-0.004,-0.0135,-0.0178,-0.0275,-0.027,-0.0316,-0.0342,-0.0338,-0.0399,-0.0378,-0.0322,-0.0315,-0.0289,-0.029,-0.029,-0.029,0,0.0196,0.019,0.0186,0.0188,0.017,0.0154,0.0156,0.0116,0.0135,0.0124,0.0185,0.0056,0.0093,-0.0021,-0.0142,-0.0172,-0.0187,-0.0212,-0.0329,-0.0332,-0.03,-0.0303,-0.0268,-0.0268,-0.0268,-0.0268,-0.0268,0,0.0225,0.0215,0.0197,0.0201,0.0222,0.019,0.0237,0.0214,0.0255,0.032,0.0241,0.028,0.0149,0.0105,-0.0059,-0.0189,-0.012,-0.0345,-0.0331,-0.0305,-0.0309,-0.0276,-0.0278,-0.0266,-0.0266,-0.0267,-0.0267,0,0.0243,0.0231,0.0233,0.0221,0.0236,0.0259,0.0351,0.0379,0.0422,0.0529,0.056,0.052,0.0445,0.0281,0.0158,-0.0026,-0.0167,-0.0231,-0.0207,-0.0196,-0.035,-0.0353,-0.035,-0.0352,-0.0354,-0.0355,-0.0356,0,0.0255,0.0247,0.0279,0.0308,0.0318,0.0374,0.0423,0.0471,0.0527,0.0647,0.0697,0.0698,0.0663,0.044,0.0144,-0.0109,-0.0158,-0.026,-0.0365,-0.0376,-0.0361,-0.0361,-0.0362,-0.0304,-0.0305,-0.0306,-0.0306,0,0.0249,0.0263,0.0266,0.0351,0.0406,0.0495,0.0569,0.0657,0.073,0.085,0.0936,0.0945,0.0736,0.0481,0.0146,-0.0059,-0.0232,-0.0285,-0.0242,-0.0319,-0.0338,-0.0323,-0.0323,-0.0312,-0.0311,-0.0311,-0.031,-0.031,0.0244,0.0263,0.0279,0.0369,0.0448,0.0562,0.0675,0.0771,0.0918,0.1105,0.1076,0.114,0.0841,0.0413,0.0075,-0.0269,-0.0282,-0.0407,-0.0402,-0.0397,-0.0433,-0.0458,-0.0459,-0.0459,-0.0459,-0.0459,-0.0459,0,0.0222,0.0233,0.0296,0.0394,0.0508,0.0564,0.0727,0.0875,0.1078,0.1218,0.133,0.1082,0.081,0.0475,-0.0042,-0.0378,-0.0389,-0.0477,-0.0409,-0.0403,-0.0397,-0.0431,-0.0457,-0.0458,-0.0458,-0.0459,0,0,0.0185,0.0215,0.026,0.0411,0.0519,0.0702,0.0829,0.106,0.1216,0.1367,0.1422,0.1413,0.0971,0.0599,0.0143,-0.014,-0.0191,-0.0203,-0.0175,-0.0037,-0.0027,-0.0336,-0.038,0,0,0,0,0]}],[{"header":{"parameterUnit":"m.s-1","parameterCategory":2,"la1":30.2991,"la2":30.254,"lo1":-89.0895,"lo2":-89.0444,"dy":0.0017,"dx":0.0017,"nx":28,"ny":28,"refTime":"2025-08-19T21:00:00:Z","depth":"4","parameterNumber":2,"parameterNumberName":"U-component_of_CURRENTS"},"data":[0,0,0,0,0,0,0,0,0,0,0,0,0,0,0,0,0,0,0,0,0,0,0,0,0,0,0,0,0,0,0,0,0,0,0,0,0,0,0,0,0,0,0,0,0,0,0,0,0,0,0,0,0,0,0,0,0,0,0.1377,0.1378,0,0.1443,0.1443,0.1444,0.1517,0.1518,0.1519,0.152,0.1515,0.1514,0.1513,0,0,0,0,0,0,0,0,0,0,0,0,0,0.1309,0.131,0.1377,0.1378,0.1379,0.1443,0.1444,0.1444,0.1517,0.1518,0.1519,0.152,0.1515,0.1514,0.1513,0,0,0,0,0,0,0,0,0,0,0,0,0,0.1354,0.1311,0.1377,0.1422,0.1427,0.1442,0.1444,0.1445,0.1516,0.1518,0.1519,0.1521,0.1516,0.1514,0.1512,0.1472,0,0,0.1507,0.1507,0,0,0,0,0,0,0,0,0.1351,0.1356,0.1415,0.1419,0.1424,0.1473,0.1418,0.145,0.1516,0.1483,0.152,0.1522,0.1493,0.1493,0.1504,0.1472,0.1471,0.1507,0.1506,0.1506,0.1505,0,0,0,0,0,0,0,0.1348,0.1354,0.1403,0.1415,0.1421,0.1437,0.1445,0.1425,0.1477,0.1486,0.1491,0.1497,0.1495,0.1505,0.1504,0.1471,0.1507,0.1506,0.1505,0.1504,0.1522,0.1523,0,0,0,0,0,0,0.1338,0.1351,0.1401,0.1405,0.139,0.1437,0.1446,0.1456,0.1479,0.1485,0.1496,0.15,0.1507,0.1506,0.1504,0.1522,0.1506,0.1504,0.1503,0.152,0.1522,0.1524,0,0,0,0,0,0,0.1336,0.1341,0.1399,0.1379,0.1387,0.1437,0.1447,0.1456,0.1495,0.1488,0.1492,0.1528,0.1508,0.1506,0.1523,0.152,0.1503,0.1502,0.1519,0.1521,0.1523,0.1516,0,0,0,0,0,0,0.1334,0.1341,0.136,0.1378,0.1388,0.1405,0.1446,0.1457,0.1494,0.1501,0.1515,0.1515,0.1509,0.1525,0.1521,0.1517,0.1501,0.1517,0.152,0.1522,0.1515,0.1518,0.1521,0,0,0,0,0,0.1331,0.1339,0.136,0.1367,0.1408,0.1404,0.141,0.1451,0.1494,0.1495,0.1533,0.1516,0.154,0.1525,0.152,0.1515,0.1516,0.1519,0.1522,0.1513,0.1517,0.1521,0,0,0,0,0,0,0.132,0.1347,0.1371,0.139,0.1397,0.1416,0.1433,0.1462,0.1494,0.152,0.1525,0.1526,0.1543,0.1537,0.1521,0.1535,0.1528,0.153,0.1523,0.1526,0.1529,0.1582,0.1499,0,0,0,0,0,0.1325,0.1336,0.1358,0.1368,0.1381,0.1415,0.1429,0.1453,0.1477,0.1496,0.1513,0.1537,0.1546,0.1546,0.1552,0.1545,0.1574,0.1546,0.1549,0.1551,0.1595,0.1656,0.1668,0.1534,0.1534,0.1534,0,0,0.1321,0.1337,0.1346,0.1366,0.1388,0.1392,0.1428,0.1448,0.1469,0.1485,0.1531,0.1545,0.1552,0.156,0.1565,0.1554,0.1595,0.1555,0.1557,0.1601,0.1661,0.1674,0.1685,0.1537,0.1536,0.1536,0,0,0.1294,0.1338,0.1336,0.1349,0.1377,0.1391,0.1401,0.1436,0.1478,0.1511,0.1538,0.1568,0.1575,0.1585,0.1589,0.1613,0.1615,0.1605,0.1648,0.1705,0.1717,0.1728,0.1733,0.1745,0.1598,0.1598,0.1598,0,0.1302,0.1301,0.133,0.1334,0.1358,0.1392,0.1402,0.143,0.147,0.1514,0.153,0.1605,0.1595,0.1622,0.164,0.1618,0.1646,0.1622,0.1709,0.172,0.1732,0.1735,0.1748,0.1598,0.1598,0.1598,0.1598,0,0.1268,0.1284,0.1284,0.1306,0.1328,0.1339,0.1384,0.1425,0.1487,0.1524,0.16,0.1618,0.1677,0.1655,0.1657,0.1721,0.171,0.1706,0.1695,0.1745,0.1745,0.1758,0.1598,0.1598,0.1598,0.1598,0,0,0.1254,0.1264,0.127,0.128,0.1329,0.1334,0.1391,0.1447,0.1495,0.1563,0.1644,0.1678,0.1732,0.1746,0.1744,0.1784,0.1854,0.1791,0.1793,0.1789,0.1961,0.1867,0.1872,0.1872,0.1876,0.1879,0.191,0,0.1231,0.1219,0.1248,0.1254,0.1258,0.1334,0.1384,0.1448,0.1509,0.1586,0.1666,0.1736,0.1748,0.1791,0.184,0.1866,0.19,0.1845,0.1924,0.1926,0.1831,0.1889,0.189,0.192,0.1923,0.1926,0.1927,0,0.119,0.1195,0.12,0.1245,0.1265,0.1289,0.1392,0.1445,0.1561,0.1608,0.1713,0.1798,0.1901,0.19,0.201,0.1982,0.1998,0.2001,0.2002,0.1943,0.186,0.1876,0.1952,0.195,0.1948,0.1947,0.1945,0,0.1133,0.1159,0.1166,0.1182,0.1244,0.13,0.1363,0.1469,0.1543,0.1654,0.173,0.1848,0.1939,0.2018,0.2098,0.2071,0.2197,0.2141,0.2059,0.2049,0.2124,0.2113,0.2226,0.2226,0.2226,0.2225,0.2225,0,0.1073,0.1074,0.1146,0.1144,0.1191,0.128,0.1353,0.1412,0.1554,0.1633,0.1769,0.1853,0.199,0.2104,0.2135,0.216,0.2239,0.2099,0.2075,0.2111,0.2098,0.2129,0.2118,0.2227,0.2226,0.2226,0.2226,0,0.0958,0.1011,0.1024,0.1118,0.1149,0.1199,0.1346,0.1414,0.1541,0.1657,0.1733,0.1901,0.2028,0.2145,0.2234,0.2189,0.2221,0.22,0.2233,0.2204,0.2009,0.1997,0.2093,0.209,0.2088,0.2087,0.2085,0,0.0883,0.0869,0.0976,0.1014,0.1054,0.1145,0.1224,0.1374,0.1447,0.167,0.1729,0.1932,0.2027,0.2079,0.2173,0.2226,0.2204,0.2182,0.2106,0.2042,0.2008,0.1999,0.199,0.2082,0.2081,0.208,0.208,0,0.0741,0.08,0.0831,0.0894,0.0982,0.1042,0.1163,0.1219,0.1418,0.1571,0.1699,0.1816,0.1929,0.2007,0.2078,0.2106,0.2182,0.2158,0.2161,0.2089,0.2029,0.1995,0.1989,0.2072,0.2074,0.2074,0.2075,0,0.0656,0.0657,0.0721,0.0769,0.0862,0.0912,0.0994,0.1122,0.1237,0.1519,0.1547,0.1747,0.1895,0.1945,0.2015,0.205,0.2003,0.1917,0.1931,0.1941,0.1885,0.1786,0.1762,0,0,0,0,0,0.0576,0.056,0.0584,0.0654,0.074,0.0786,0.0939,0.1049,0.1271,0.1334,0.1443,0.1562,0.169,0.1782,0.1788,0.1924,0.1987,0.192,0.1888,0.2031,0.204,0.1993,0,0,0,0,0,0,0.0513,0.0537,0.0539,0.0535,0.0564,0.0645,0.0743,0.0902,0.0946,0.1184,0.1266,0.145,0.1594,0.1667,0.1748,0.178,0.1726,0.2054,0.205,0.2026,0.2034,0.2041,0.1996,0,0,0,0,0]},{"header":{"parameterUnit":"m.s-1","parameterCategory":2,"la1":30.2991,"la2":30.254,"lo1":-89.0895,"lo2":-89.0444,"dy":0.0017,"dx":0.0017,"nx":28,"ny":28,"refTime":"2025-08-19T21:00:00:Z","depth":"4","parameterNumber":3,"parameterNumberName":"V-component_of_CURRENTS"},"data":[0,0,0,0,0,0,0,0,0,0,0,0,0,0,0,0,0,0,0,0,0,0,0,0,0,0,0,0,0,0,0,0,0,0,0,0,0,0,0,0,0,0,0,0,0,0,0,0,0,0,0,0,0,0,0,0,0,0,0.0026,0.0025,0,-0.001,-0.0011,-0.0011,-0.0046,-0.0047,-0.0047,-0.0047,-0.0084,-0.0085,-0.0086,0,0,0,0,0,0,0,0,0,0,0,0,0,0.0022,0.0022,0.0026,0.0025,0.0025,-0.001,-0.0011,-0.0011,-0.0046,-0.0047,-0.0047,-0.0047,-0.0084,-0.0085,-0.0086,0,0,0,0,0,0,0,0,0,0,0,0,0,0.0007,0.0022,0.0026,0.0005,0.0002,-0.001,-0.0011,-0.0012,-0.0046,-0.0047,-0.0047,-0.0047,-0.0084,-0.0085,-0.0086,-0.0083,0,0,-0.0089,-0.009,0,0,0,0,0,0,0,0,0.0008,0.0007,0.0008,0.0006,0.0004,-0.0023,-0.0026,-0.0035,-0.0046,-0.0029,-0.0047,-0.0048,-0.0063,-0.0066,-0.0073,-0.0085,-0.0086,-0.0089,-0.009,-0.009,-0.0091,0,0,0,0,0,0,0,0.0009,0.0008,0.001,0.0008,0.0005,-0.0018,-0.002,-0.0028,-0.0044,-0.0031,-0.0033,-0.0034,-0.0064,-0.0072,-0.0074,-0.0087,-0.0089,-0.009,-0.0091,-0.0091,-0.0095,-0.0095,0,0,0,0,0,0,0.0019,0.001,0.0011,0.0009,0.0006,-0.0017,-0.002,-0.0015,-0.0044,-0.0048,-0.0034,-0.0036,-0.007,-0.0073,-0.0076,-0.0042,-0.009,-0.0091,-0.0092,-0.0096,-0.0095,-0.0095,0,0,0,0,0,0,0.002,0.002,0.0013,0.0009,0.0007,-0.0016,-0.0011,-0.0016,-0.0022,-0.0046,-0.0051,-0.0035,-0.0071,-0.0074,-0.0082,-0.0045,-0.0092,-0.0093,-0.0097,-0.0096,-0.0095,0.0005,0,0,0,0,0,0,0.002,0.0021,0.0026,0.001,0.0007,0.0019,-0.001,-0.0016,-0.0021,-0.0024,-0.0048,-0.0053,-0.0071,-0.008,-0.0083,-0.0047,-0.0094,-0.0097,-0.0096,-0.0095,0.0001,0.0009,0.0016,0,0,0,0,0,0.002,0.0035,0.0026,0.0026,0.0016,0.002,0.0017,-0.0003,-0.0021,-0.0013,-0.0038,-0.0052,-0.0076,-0.0081,-0.0084,-0.0048,-0.0098,-0.0096,-0.0095,-0.0002,0.0008,0.0016,0,0,0,0,0,0,0.0037,0.0032,0.0023,0.0036,0.0033,0.0015,0.0017,0.0003,-0.0012,-0.0019,-0.0047,-0.0052,-0.0043,-0.0067,-0.0072,-0.005,-0.0088,-0.0087,-0.0016,-0.0007,0.0001,0.0006,-0.0095,0,0,0,0,0,0.0043,0.0054,0.0045,0.0057,0.0055,0.0036,0.0032,0.0022,0.0008,0.0,-0.0017,-0.0037,-0.0041,-0.0042,-0.0055,-0.0043,-0.0101,-0.0024,-0.0016,-0.001,-0.001,-0.0074,-0.0073,-0.0091,-0.0091,-0.0091,0,0,0.005,0.0052,0.0056,0.0061,0.0052,0.0072,0.0033,0.0036,0.0058,-0.0,0.0016,-0.0012,-0.0035,-0.0019,-0.0017,-0.0033,-0.0036,-0.0008,-0.0002,-0.0006,-0.0073,-0.0071,-0.007,-0.009,-0.009,-0.009,0,0,0.0085,0.0074,0.0099,0.0103,0.0103,0.0096,0.0101,0.0088,0.0086,0.0094,0.0061,0.0049,0.0041,0.0034,0.003,0.0068,0.0003,0.0067,0.0117,0.0055,0.0056,0.0056,-0.0019,-0.0026,0.0075,0.0075,0.0075,0,0.0094,0.0128,0.0106,0.0137,0.0146,0.0113,0.0146,0.0146,0.0134,0.0133,0.0112,0.0085,0.007,0.0087,0.0104,0.0089,0.0028,0.0092,0.0066,0.0064,0.0063,-0.0015,-0.0024,0.008,0.0079,0.0079,0.0078,0,0.0148,0.0179,0.0194,0.0223,0.023,0.025,0.0248,0.0256,0.0241,0.0228,0.0227,0.0191,0.0172,0.0175,0.0156,0.0152,0.0103,0.0081,0.0046,0.0071,-0.0013,-0.0024,0.0087,0.0085,0.0084,0.0082,0,0,0.0161,0.0221,0.0229,0.026,0.0276,0.0289,0.0326,0.0342,0.035,0.0335,0.0337,0.0334,0.0287,0.0277,0.0246,0.0202,0.0147,0.0144,0.0139,0.0076,-0.0011,-0.001,-0.0024,0.0114,0.0113,0.0112,-0.0066,0,0.0212,0.0294,0.0305,0.0375,0.0412,0.0402,0.0437,0.0443,0.0423,0.0414,0.0378,0.0364,0.0337,0.0319,0.0276,0.0172,0.0121,0.0196,-0.0032,-0.0039,-0.0035,-0.0035,0.0108,-0.0075,-0.0078,-0.008,-0.0082,0,0.0261,0.0312,0.0396,0.0456,0.0467,0.0503,0.0523,0.055,0.0532,0.0505,0.0475,0.0428,0.0384,0.0344,0.0186,0.0229,0.0122,0.0037,0.0027,-0.0015,-0.0058,-0.0107,-0.0104,-0.0102,-0.0101,-0.0099,-0.0098,0,0.0283,0.0371,0.0442,0.0464,0.0525,0.0558,0.0583,0.0579,0.0591,0.0555,0.0531,0.0462,0.0407,0.0285,0.0125,0.0145,-0.0083,-0.0081,-0.0182,-0.0185,-0.0178,-0.0176,-0.02,-0.02,-0.0199,-0.0199,-0.0198,0,0.033,0.0386,0.0463,0.0503,0.0571,0.0597,0.0643,0.0644,0.0639,0.0639,0.0579,0.0538,0.0384,0.0247,0.0115,-0.0079,-0.0097,-0.018,-0.0227,-0.0133,-0.0124,-0.0187,-0.0183,-0.0206,-0.0204,-0.0203,-0.0202,0,0.0349,0.0402,0.0483,0.0564,0.059,0.0636,0.0693,0.0722,0.0699,0.0693,0.0686,0.0568,0.0394,0.0224,-0.0012,-0.0102,-0.0278,-0.0345,-0.0253,-0.0291,-0.0336,-0.0325,-0.046,-0.0462,-0.0463,-0.0464,-0.0465,0,0.0367,0.0417,0.0518,0.0563,0.0607,0.0678,0.0731,0.0751,0.0769,0.0708,0.0703,0.0545,0.0451,0.0115,-0.0065,-0.0329,-0.0352,-0.045,-0.0357,-0.033,-0.0362,-0.0349,-0.0337,-0.0467,-0.0467,-0.0467,-0.0467,0,0.0398,0.0436,0.0501,0.0592,0.0664,0.0739,0.0808,0.0818,0.083,0.081,0.0709,0.0557,0.0346,0.0116,-0.0107,-0.0285,-0.038,-0.0462,-0.0459,-0.0372,-0.0339,-0.0367,-0.0353,-0.0471,-0.0471,-0.047,-0.047,0,0.0411,0.0456,0.054,0.0617,0.0702,0.0776,0.081,0.0835,0.0849,0.0791,0.0744,0.054,0.0413,0.0133,-0.0068,-0.0247,-0.0263,-0.0294,-0.03,-0.0298,-0.0181,-0.011,-0.0217,0,0,0,0,0,0.0428,0.0487,0.0559,0.0646,0.0727,0.0778,0.0853,0.0879,0.0883,0.0829,0.0791,0.0609,0.0316,0.0175,-0.0,-0.0084,-0.03,-0.0294,-0.034,-0.0494,-0.0489,-0.0375,0,0,0,0,0,0,0.0444,0.0521,0.0562,0.0656,0.0712,0.0808,0.0857,0.0864,0.0829,0.08,0.0644,0.0575,0.0284,0.0414,-0.0004,-0.0061,-0.011,-0.0431,-0.0435,-0.0496,-0.0492,-0.0488,-0.037,0,0,0,0,0]}]]